792  
ASUS43 KOAX 160810  
RWRNE  
 
WEATHER ROUNDUP FOR NEBRASKA  
NATIONAL WEATHER SERVICE OMAHA NE  
300 AM CDT THU AUG 16 2018  
 
NOTES: SATELLITE DATA IS BEING USED TO AUGMENT CLOUD COVER ABOVE  
12000 FEET.  
"FAIR" INDICATES FEW OR NO CLOUDS BELOW 12,000 FEET WITH NO  
SIGNIFICANT WEATHER AND/OR S TO VISIBILITY
.  
 
 
NEZ001>004-019>022-054>056-160900-  
NEBRASKA PANHANDLE  
 
CITY SKY/WX TMP DP RH WIND PRES REMARKS
 
SCOTTSBLUFF CLEAR 58 58 100 CALM 30.08S  
ALLIANCE CLEAR 54 54 100 N5 30.06F  
CHADRON CLEAR 57 53 86 CALM 30.05S  
GORDON FAIR 54 52 94 W5 30.05F  
KIMBALL CLEAR 56 55 96 NE5 30.11F  
SIDNEY PTCLDY 55 54 96 N6 30.08F  

 
 
NEZ057>060-069>072-079>082-160900-  
SOUTHWEST NEBRASKA  
 
CITY SKY/WX TMP DP RH WIND PRES REMARKS
 
NORTH PLATTE CLEAR 62 61 96 E5 30.02R  
IMPERIAL CLEAR 62 62 100 NE5 30.00S  
LEXINGTON CLEAR 65 63 94 CALM 29.99S  
MCCOOK CLEAR 65 63 93 E7 29.98S  
OGALLALA MOCLDY 63 62 98 NE3 30.03S FOG  

 
 
NEZ005>010-023>029-035>040-094-160900-  
NORTH CENTRAL NEBRASKA  
 
CITY SKY/WX TMP DP RH WIND PRES REMARKS
 
VALENTINE PTCLDY 57 57 100 CALM 30.01F  
AINSWORTH PTCLDY 57 57 100 CALM 30.02R  
BROKEN BOW CLOUDY 63 60 90 N9 30.01S  
O'NEILL LGT RAIN 64 63 97 W8 30.01R  
ORD TSTM 61 59 93 N12 29.97F  
THEDFORD PTCLDY 56 55 97 CALM 30.04F  

 
 
NEZ041-046>049-061>064-073>077-083>087-160900-  
SOUTH CENTRAL NEBRASKA  
 
CITY SKY/WX TMP DP RH WIND PRES REMARKS
 
GRAND ISLAND CLOUDY 66 66 100 NE3 29.97S FOG  
AURORA CLOUDY 65 65 100 CALM 29.97S  
HASTINGS PTCLDY 68 67 96 NE3 29.98S  
HEBRON PTCLDY 65 64 97 CALM 29.95F FOG  
HOLDREGE CLEAR 65 65 98 SE6 29.98S  
KEARNEY MOCLDY 68 66 93 N3 29.97F  
YORK PTCLDY 64 64 100 CALM 29.96F  

 
 
NEZ011>018-030>034-042>045-160900-  
NORTHEAST NEBRASKA  
 
CITY SKY/WX TMP DP RH WIND PRES REMARKS
 
NORFOLK MOCLDY 66 62 87 CALM 29.97F  
ALBION TSTM 65 63 92 NW21G29 30.04R  
BLAIR CLEAR 69 68 97 CALM 29.95R FOG  
COLUMBUS CLOUDY 66 64 93 NE6G16 29.97F  
FREMONT CLOUDY 70 69 97 NW3 29.96R  
TEKAMAH MOCLDY 68 67 96 CALM 29.93S  
WAYNE TSTM 65 64 97 NW21G30 29.98R  

 
 
NEZ050>053-065>068-078-088>093-160900-  
SOUTHEAST NEBRASKA  
 
CITY SKY/WX TMP DP RH WIND PRES REMARKS
 
LINCOLN CLEAR 67 65 93 N7 29.95S  
OMAHA EPPLEY PTCLDY 70 68 93 NW5 29.94R  
BEATRICE CLEAR 66 66 99 CALM 29.95S FOG  
FALLS CITY CLEAR 68 67 96 CALM 29.91S FOG  
NEBRASKA CITY CLEAR 69 69 100 N5 29.93F FOG  
PLATTSMOUTH CLOUDY 68 68 99 NW3 29.94S FOG  

 
 
NEZ044-045-051>053-067-160900-  
OMAHA AREA  
 
CITY SKY/WX TMP DP RH WIND PRES REMARKS
 
OMAHA EPPLEY PTCLDY 70 68 93 NW5 29.94R  
BLAIR CLEAR 69 68 97 CALM 29.95R FOG  
FREMONT CLOUDY 70 69 97 NW3 29.96R  
MILLARD N/A 70 69 97 CALM 29.94R FOG  
OFFUTT AFB CLEAR 67 67 100 CALM 29.93R  
PLATTSMOUTH CLOUDY 68 68 99 NW3 29.94S FOG  
WAHOO CLOUDY 69 69 100 CALM 29.95S FOG  

 
 
 
CLICK HERE TO GO TO PREVIOUS BULLETINS.

The Nexlab NE Page Main Text Page